Year,Month,Day,Hour,Minute,Value (Times are PST for temperature in C)
2015,08,09,00,00,16.30
2015,08,09,00,01,16.30
2015,08,09,00,02,16.40
2015,08,09,00,03,16.40
2015,08,09,00,04,16.40
2015,08,09,00,05,16.40
2015,08,09,00,06,16.50
2015,08,09,00,07,16.50
2015,08,09,00,08,16.60
2015,08,09,00,09,16.60
2015,08,09,00,10,16.60
2015,08,09,00,11,16.60
2015,08,09,00,12,16.60
2015,08,09,00,13,16.60
2015,08,09,00,14,16.60
2015,08,09,00,15,16.50
2015,08,09,00,16,16.50
2015,08,09,00,17,16.40
2015,08,09,00,18,16.40
2015,08,09,00,19,16.30
2015,08,09,00,20,16.30
2015,08,09,00,21,16.30
2015,08,09,00,22,16.20
2015,08,09,00,23,16.20
2015,08,09,00,24,16.20
2015,08,09,00,25,16.20
2015,08,09,00,26,16.20
2015,08,09,00,27,16.20
2015,08,09,00,28,16.20
2015,08,09,00,29,16.30
2015,08,09,00,30,16.30
2015,08,09,00,31,16.30
2015,08,09,00,32,16.30
2015,08,09,00,33,16.30
2015,08,09,00,34,16.20
2015,08,09,00,35,16.20
2015,08,09,00,36,16.20
2015,08,09,00,37,16.20
2015,08,09,00,38,16.20
2015,08,09,00,39,16.10
2015,08,09,00,40,16.10
2015,08,09,00,41,16.10
2015,08,09,00,42,16.00
2015,08,09,00,43,16.00
2015,08,09,00,44,15.90
2015,08,09,00,45,15.90
2015,08,09,00,46,15.80
2015,08,09,00,47,15.80
2015,08,09,00,48,15.70
2015,08,09,00,49,15.70
2015,08,09,00,50,15.80
2015,08,09,00,51,15.80
2015,08,09,00,52,15.80
2015,08,09,00,53,15.80
2015,08,09,00,54,15.80
2015,08,09,00,55,15.80
2015,08,09,00,56,15.80
2015,08,09,00,57,15.80
2015,08,09,00,58,15.80
2015,08,09,00,59,15.90
2015,08,09,01,00,16.00
2015,08,09,01,01,16.00
2015,08,09,01,02,15.90
2015,08,09,01,03,15.90
2015,08,09,01,04,15.90
2015,08,09,01,05,15.80
2015,08,09,01,06,15.80
2015,08,09,01,07,15.90
2015,08,09,01,08,15.90
2015,08,09,01,09,15.90
2015,08,09,01,10,15.90
2015,08,09,01,11,16.10
2015,08,09,01,12,16.30
2015,08,09,01,13,16.60
2015,08,09,01,14,16.80
2015,08,09,01,15,16.90
2015,08,09,01,16,16.90
2015,08,09,01,17,17.00
2015,08,09,01,18,17.10
2015,08,09,01,19,17.10
2015,08,09,01,20,17.10
2015,08,09,01,21,17.10
2015,08,09,01,22,17.10
2015,08,09,01,23,17.10
2015,08,09,01,24,17.00
2015,08,09,01,25,17.00
2015,08,09,01,26,16.90
2015,08,09,01,27,16.90
2015,08,09,01,28,16.90
2015,08,09,01,29,16.90
2015,08,09,01,30,16.90
2015,08,09,01,31,16.90
2015,08,09,01,32,16.90
2015,08,09,01,33,16.90
2015,08,09,01,34,17.00
2015,08,09,01,35,17.00
2015,08,09,01,36,17.00
2015,08,09,01,37,17.00
2015,08,09,01,38,17.00
2015,08,09,01,39,17.00
2015,08,09,01,40,17.00
2015,08,09,01,41,17.00
2015,08,09,01,42,17.00
2015,08,09,01,43,17.00
2015,08,09,01,44,17.00
2015,08,09,01,45,17.00
2015,08,09,01,46,17.00
2015,08,09,01,47,17.00
2015,08,09,01,48,16.90
2015,08,09,01,49,16.80
2015,08,09,01,50,16.80
2015,08,09,01,51,16.70
2015,08,09,01,52,16.60
2015,08,09,01,53,16.50
2015,08,09,01,54,16.40
2015,08,09,01,55,16.30
2015,08,09,01,56,16.20
2015,08,09,01,57,16.20
2015,08,09,01,58,16.10
2015,08,09,01,59,16.10
2015,08,09,02,00,16.10
2015,08,09,02,01,16.10
2015,08,09,02,02,16.10
2015,08,09,02,03,16.20
2015,08,09,02,04,16.20
2015,08,09,02,05,16.20
2015,08,09,02,06,16.20
2015,08,09,02,07,16.20
2015,08,09,02,08,16.20
2015,08,09,02,09,16.20
2015,08,09,02,10,16.20
2015,08,09,02,11,16.20
2015,08,09,02,12,16.10
2015,08,09,02,13,16.10
2015,08,09,02,14,16.10
2015,08,09,02,15,16.00
2015,08,09,02,16,15.90
2015,08,09,02,17,15.90
2015,08,09,02,18,15.90
2015,08,09,02,19,16.00
2015,08,09,02,20,16.00
2015,08,09,02,21,16.10
2015,08,09,02,22,16.10
2015,08,09,02,23,16.10
2015,08,09,02,24,16.10
2015,08,09,02,25,16.10
2015,08,09,02,26,16.10
2015,08,09,02,27,16.10
2015,08,09,02,28,16.10
2015,08,09,02,29,16.10
2015,08,09,02,30,16.10
2015,08,09,02,31,16.10
2015,08,09,02,32,16.10
2015,08,09,02,33,16.10
2015,08,09,02,34,16.10
2015,08,09,02,35,16.10
2015,08,09,02,36,16.10
2015,08,09,02,37,16.10
2015,08,09,02,38,16.20
2015,08,09,02,39,16.20
2015,08,09,02,40,16.20
2015,08,09,02,41,16.20
2015,08,09,02,42,16.20
2015,08,09,02,43,16.20
2015,08,09,02,44,16.20
2015,08,09,02,45,16.20
2015,08,09,02,46,16.20
2015,08,09,02,47,16.20
2015,08,09,02,48,16.20
2015,08,09,02,49,16.20
2015,08,09,02,50,16.20
2015,08,09,02,51,16.10
2015,08,09,02,52,16.10
2015,08,09,02,53,16.10
2015,08,09,02,54,16.10
2015,08,09,02,55,16.10
2015,08,09,02,56,16.10
2015,08,09,02,57,16.10
2015,08,09,02,58,16.10
2015,08,09,02,59,16.10
2015,08,09,03,00,16.20
2015,08,09,03,01,16.20
2015,08,09,03,02,16.10
2015,08,09,03,03,16.10
2015,08,09,03,04,16.00
2015,08,09,03,05,15.90
2015,08,09,03,06,15.90
2015,08,09,03,07,15.80
2015,08,09,03,08,15.80
2015,08,09,03,09,15.80
2015,08,09,03,10,15.80
2015,08,09,03,11,15.90
2015,08,09,03,12,15.90
2015,08,09,03,13,16.00
2015,08,09,03,14,16.10
2015,08,09,03,15,16.10
2015,08,09,03,16,16.20
2015,08,09,03,17,16.30
2015,08,09,03,18,16.40
2015,08,09,03,19,16.40
2015,08,09,03,20,16.40
2015,08,09,03,21,16.40
2015,08,09,03,22,16.30
2015,08,09,03,23,16.30
2015,08,09,03,24,16.30
2015,08,09,03,25,16.30
2015,08,09,03,26,16.30
2015,08,09,03,27,16.20
2015,08,09,03,28,16.20
2015,08,09,03,29,16.20
2015,08,09,03,30,16.20
2015,08,09,03,31,16.10
2015,08,09,03,32,16.10
2015,08,09,03,33,16.10
2015,08,09,03,34,16.10
2015,08,09,03,35,16.10
2015,08,09,03,36,16.10
2015,08,09,03,37,16.00
2015,08,09,03,38,15.90
2015,08,09,03,39,15.90
2015,08,09,03,40,15.80
2015,08,09,03,41,15.70
2015,08,09,03,42,15.60
2015,08,09,03,43,15.60
2015,08,09,03,44,15.60
2015,08,09,03,45,15.50
2015,08,09,03,46,15.50
2015,08,09,03,47,15.50
2015,08,09,03,48,15.40
2015,08,09,03,49,15.30
2015,08,09,03,50,15.30
2015,08,09,03,51,15.20
2015,08,09,03,52,15.10
2015,08,09,03,53,15.10
2015,08,09,03,54,15.00
2015,08,09,03,55,15.00
2015,08,09,03,56,15.00
2015,08,09,03,57,15.00
2015,08,09,03,58,15.00
2015,08,09,03,59,15.10
2015,08,09,04,00,15.00
2015,08,09,04,01,15.00
2015,08,09,04,02,15.00
2015,08,09,04,03,15.00
2015,08,09,04,04,15.00
2015,08,09,04,05,15.00
2015,08,09,04,06,15.00
2015,08,09,04,07,15.00
2015,08,09,04,08,15.10
2015,08,09,04,09,15.10
2015,08,09,04,10,15.20
2015,08,09,04,11,15.20
2015,08,09,04,12,15.30
2015,08,09,04,13,15.30
2015,08,09,04,14,15.30
2015,08,09,04,15,15.20
2015,08,09,04,16,15.10
2015,08,09,04,17,15.10
2015,08,09,04,18,15.10
2015,08,09,04,19,15.10
2015,08,09,04,20,15.00
2015,08,09,04,21,15.10
2015,08,09,04,22,15.00
2015,08,09,04,23,15.00
2015,08,09,04,24,15.00
2015,08,09,04,25,15.00
2015,08,09,04,26,15.00
2015,08,09,04,27,15.00
2015,08,09,04,28,15.00
2015,08,09,04,29,15.00
2015,08,09,04,30,15.00
2015,08,09,04,31,15.00
2015,08,09,04,32,15.00
2015,08,09,04,33,15.00
2015,08,09,04,34,14.90
2015,08,09,04,35,14.90
2015,08,09,04,36,14.90
2015,08,09,04,37,14.90
2015,08,09,04,38,14.90
2015,08,09,04,39,14.90
2015,08,09,04,40,14.90
2015,08,09,04,41,14.90
2015,08,09,04,42,14.90
2015,08,09,04,43,14.90
2015,08,09,04,44,14.80
2015,08,09,04,45,14.80
2015,08,09,04,46,14.90
2015,08,09,04,47,15.00
2015,08,09,04,48,15.00
2015,08,09,04,49,15.00
2015,08,09,04,50,15.10
2015,08,09,04,51,15.20
2015,08,09,04,52,15.30
2015,08,09,04,53,15.40
2015,08,09,04,54,15.50
2015,08,09,04,55,15.60
2015,08,09,04,56,15.70
2015,08,09,04,57,15.80
2015,08,09,04,58,15.90
2015,08,09,04,59,16.00
2015,08,09,05,00,16.00
2015,08,09,05,01,16.00
2015,08,09,05,02,16.10
2015,08,09,05,03,16.10
2015,08,09,05,04,16.20
2015,08,09,05,05,16.20
2015,08,09,05,06,16.30
2015,08,09,05,07,16.30
2015,08,09,05,08,16.30
2015,08,09,05,09,16.40
2015,08,09,05,10,16.40
2015,08,09,05,11,16.40
2015,08,09,05,12,16.40
2015,08,09,05,13,16.40
2015,08,09,05,14,16.40
2015,08,09,05,15,16.40
2015,08,09,05,16,16.40
2015,08,09,05,17,16.40
2015,08,09,05,18,16.30
2015,08,09,05,19,16.30
2015,08,09,05,20,16.30
2015,08,09,05,21,16.30
2015,08,09,05,22,16.20
2015,08,09,05,23,16.20
2015,08,09,05,24,16.20
2015,08,09,05,25,16.10
2015,08,09,05,26,16.10
2015,08,09,05,27,16.00
2015,08,09,05,28,16.00
2015,08,09,05,29,15.90
2015,08,09,05,30,16.00
2015,08,09,05,31,16.00
2015,08,09,05,32,16.10
2015,08,09,05,33,16.20
2015,08,09,05,34,16.20
2015,08,09,05,35,16.20
2015,08,09,05,36,16.20
2015,08,09,05,37,16.20
2015,08,09,05,38,16.20
2015,08,09,05,39,16.20
2015,08,09,05,40,16.10
2015,08,09,05,41,16.10
2015,08,09,05,42,16.10
2015,08,09,05,43,16.00
2015,08,09,05,44,16.00
2015,08,09,05,45,15.90
2015,08,09,05,46,15.90
2015,08,09,05,47,15.80
2015,08,09,05,48,15.70
2015,08,09,05,49,15.60
2015,08,09,05,50,15.50
2015,08,09,05,51,15.40
2015,08,09,05,52,15.30
2015,08,09,05,53,15.20
2015,08,09,05,54,15.10
2015,08,09,05,55,15.00
2015,08,09,05,56,15.00
2015,08,09,05,57,15.00
2015,08,09,05,58,15.00
2015,08,09,05,59,15.00
2015,08,09,06,00,15.00
2015,08,09,06,01,15.00
2015,08,09,06,02,15.00
2015,08,09,06,03,14.90
2015,08,09,06,04,14.80
2015,08,09,06,05,14.70
2015,08,09,06,06,14.60
2015,08,09,06,07,14.60
2015,08,09,06,08,14.50
2015,08,09,06,09,14.40
2015,08,09,06,10,14.40
2015,08,09,06,11,14.40
2015,08,09,06,12,14.30
2015,08,09,06,13,14.30
2015,08,09,06,14,14.20
2015,08,09,06,15,14.20
2015,08,09,06,16,14.10
2015,08,09,06,17,14.10
2015,08,09,06,18,14.00
2015,08,09,06,19,14.00
2015,08,09,06,20,13.90
2015,08,09,06,21,13.90
2015,08,09,06,22,13.80
2015,08,09,06,23,13.80
2015,08,09,06,24,13.80
2015,08,09,06,25,13.80
2015,08,09,06,26,13.90
2015,08,09,06,27,13.90
2015,08,09,06,28,14.00
2015,08,09,06,29,14.10
2015,08,09,06,30,14.20
2015,08,09,06,31,14.20
2015,08,09,06,32,14.30
2015,08,09,06,33,14.40
2015,08,09,06,34,14.60
2015,08,09,06,35,14.70
2015,08,09,06,36,14.90
2015,08,09,06,37,15.00
2015,08,09,06,38,15.00
2015,08,09,06,39,15.10
2015,08,09,06,40,15.20
2015,08,09,06,41,15.20
2015,08,09,06,42,15.20
2015,08,09,06,43,15.20
2015,08,09,06,44,15.20
2015,08,09,06,45,15.30
2015,08,09,06,46,15.30
2015,08,09,06,47,15.20
2015,08,09,06,48,15.10
2015,08,09,06,49,15.00
2015,08,09,06,50,15.00
2015,08,09,06,51,15.00
2015,08,09,06,52,15.00
2015,08,09,06,53,15.00
2015,08,09,06,54,15.00
2015,08,09,06,55,15.00
2015,08,09,06,56,15.00
2015,08,09,06,57,15.00
2015,08,09,06,58,15.00
2015,08,09,06,59,15.00
2015,08,09,07,00,15.00
2015,08,09,07,01,15.00
2015,08,09,07,02,15.00
2015,08,09,07,03,15.00
2015,08,09,07,04,15.10
2015,08,09,07,05,15.10
2015,08,09,07,06,15.20
2015,08,09,07,07,15.20
2015,08,09,07,08,15.20
2015,08,09,07,09,15.20
2015,08,09,07,10,15.20
2015,08,09,07,11,15.30
2015,08,09,07,12,15.30
2015,08,09,07,13,15.30
2015,08,09,07,14,15.30
2015,08,09,07,15,15.30
2015,08,09,07,16,15.30
2015,08,09,07,17,15.40
2015,08,09,07,18,15.40
2015,08,09,07,19,15.50
2015,08,09,07,20,15.60
2015,08,09,07,21,15.70
2015,08,09,07,22,15.70
2015,08,09,07,23,15.80
2015,08,09,07,24,15.90
2015,08,09,07,25,16.00
2015,08,09,07,26,16.10
2015,08,09,07,27,16.20
2015,08,09,07,28,16.30
2015,08,09,07,29,16.40
2015,08,09,07,30,16.50
2015,08,09,07,31,16.60
2015,08,09,07,32,16.60
2015,08,09,07,33,16.70
2015,08,09,07,34,16.70
2015,08,09,07,35,16.70
2015,08,09,07,36,16.70
2015,08,09,07,37,16.70
2015,08,09,07,38,16.70
2015,08,09,07,39,16.70
2015,08,09,07,40,16.70
2015,08,09,07,41,16.70
2015,08,09,07,42,16.70
2015,08,09,07,43,16.70
2015,08,09,07,44,16.70
2015,08,09,07,45,16.70
2015,08,09,07,46,16.70
2015,08,09,07,47,16.70
2015,08,09,07,48,16.70
2015,08,09,07,49,16.70
2015,08,09,07,50,16.70
2015,08,09,07,51,16.70
2015,08,09,07,52,16.70
2015,08,09,07,53,16.70
2015,08,09,07,54,16.70
2015,08,09,07,55,16.70
2015,08,09,07,56,16.70
2015,08,09,07,57,16.70
2015,08,09,07,58,16.70
2015,08,09,07,59,16.70
2015,08,09,08,00,16.80
2015,08,09,08,01,16.80
2015,08,09,08,02,16.80
2015,08,09,08,03,16.90
2015,08,09,08,04,16.90
2015,08,09,08,05,17.00
2015,08,09,08,06,17.00
2015,08,09,08,07,17.00
2015,08,09,08,08,17.00
2015,08,09,08,09,17.00
2015,08,09,08,10,17.00
2015,08,09,08,11,17.00
2015,08,09,08,12,17.00
2015,08,09,08,13,17.10
2015,08,09,08,14,17.10
2015,08,09,08,15,17.20
2015,08,09,08,16,17.20
2015,08,09,08,17,17.30
2015,08,09,08,18,17.30
2015,08,09,08,19,17.30
2015,08,09,08,20,17.30
2015,08,09,08,21,17.40
2015,08,09,08,22,17.40
2015,08,09,08,23,17.40
2015,08,09,08,24,17.50
2015,08,09,08,25,17.50
2015,08,09,08,26,17.50
2015,08,09,08,27,17.60
2015,08,09,08,28,17.60
2015,08,09,08,29,17.60
2015,08,09,08,30,17.70
2015,08,09,08,31,17.70
2015,08,09,08,32,17.80
2015,08,09,08,33,17.80
2015,08,09,08,34,17.80
2015,08,09,08,35,17.90
2015,08,09,08,36,17.90
2015,08,09,08,37,17.80
2015,08,09,08,38,17.80
2015,08,09,08,39,17.70
2015,08,09,08,40,17.70
2015,08,09,08,41,17.60
2015,08,09,08,42,17.60
2015,08,09,08,43,17.50
2015,08,09,08,44,17.50
2015,08,09,08,45,17.40
2015,08,09,08,46,17.40
2015,08,09,08,47,17.40
2015,08,09,08,48,17.50
2015,08,09,08,49,17.50
2015,08,09,08,50,17.60
2015,08,09,08,51,17.60
2015,08,09,08,52,17.70
2015,08,09,08,53,17.70
2015,08,09,08,54,17.70
2015,08,09,08,55,17.70
2015,08,09,08,56,17.70
2015,08,09,08,57,17.70
2015,08,09,08,58,17.70
2015,08,09,08,59,17.70
2015,08,09,09,00,17.70
2015,08,09,09,01,17.70
2015,08,09,09,02,17.70
2015,08,09,09,03,17.80
2015,08,09,09,04,17.90
2015,08,09,09,05,17.90
2015,08,09,09,06,17.80
2015,08,09,09,07,17.80
2015,08,09,09,08,17.70
2015,08,09,09,09,17.70
2015,08,09,09,10,17.70
2015,08,09,09,11,17.70
2015,08,09,09,12,17.70
2015,08,09,09,13,17.70
2015,08,09,09,14,17.70
2015,08,09,09,15,17.70
2015,08,09,09,16,17.70
2015,08,09,09,17,17.80
2015,08,09,09,18,17.80
2015,08,09,09,19,17.90
2015,08,09,09,20,17.90
2015,08,09,09,21,17.80
2015,08,09,09,22,17.80
2015,08,09,09,23,17.90
2015,08,09,09,24,18.00
2015,08,09,09,25,18.10
2015,08,09,09,26,18.20
2015,08,09,09,27,18.30
2015,08,09,09,28,18.40
2015,08,09,09,29,18.50
2015,08,09,09,30,18.60
2015,08,09,09,31,18.70
2015,08,09,09,32,18.80
2015,08,09,09,33,18.90
2015,08,09,09,34,18.90
2015,08,09,09,35,19.00
2015,08,09,09,36,19.10
2015,08,09,09,37,19.20
2015,08,09,09,38,19.30
2015,08,09,09,39,19.30
2015,08,09,09,40,19.30
2015,08,09,09,41,19.20
2015,08,09,09,42,19.20
2015,08,09,09,43,19.10
2015,08,09,09,44,19.00
2015,08,09,09,45,18.90
2015,08,09,09,46,18.90
2015,08,09,09,47,18.80
2015,08,09,09,48,18.80
2015,08,09,09,49,18.80
2015,08,09,09,50,18.90
2015,08,09,09,51,19.00
2015,08,09,09,52,19.10
2015,08,09,09,53,19.10
2015,08,09,09,54,19.10
2015,08,09,09,55,19.00
2015,08,09,09,56,18.90
2015,08,09,09,57,18.90
2015,08,09,09,58,19.00
2015,08,09,09,59,19.10
2015,08,09,10,00,19.10
2015,08,09,10,01,19.00
2015,08,09,10,02,18.90
2015,08,09,10,03,19.00
2015,08,09,10,04,19.00
2015,08,09,10,05,18.90
2015,08,09,10,06,18.90
2015,08,09,10,07,19.00
2015,08,09,10,08,19.00
2015,08,09,10,09,19.10
2015,08,09,10,10,19.10
2015,08,09,10,11,19.10
2015,08,09,10,12,19.20
2015,08,09,10,13,19.20
2015,08,09,10,14,19.20
2015,08,09,10,15,19.20
2015,08,09,10,16,19.20
2015,08,09,10,17,19.20
2015,08,09,10,18,19.10
2015,08,09,10,19,19.10
2015,08,09,10,20,19.10
2015,08,09,10,21,19.10
2015,08,09,10,22,19.20
2015,08,09,10,23,19.30
2015,08,09,10,24,19.40
2015,08,09,10,25,19.40
2015,08,09,10,26,19.40
2015,08,09,10,27,19.40
2015,08,09,10,28,19.50
2015,08,09,10,29,19.50
2015,08,09,10,30,19.40
2015,08,09,10,31,19.50
2015,08,09,10,32,19.60
2015,08,09,10,33,19.50
2015,08,09,10,34,19.50
2015,08,09,10,35,19.40
2015,08,09,10,36,19.30
2015,08,09,10,37,19.10
2015,08,09,10,38,18.90
2015,08,09,10,39,18.80
2015,08,09,10,40,18.80
2015,08,09,10,41,18.80
2015,08,09,10,42,18.80
2015,08,09,10,43,18.70
2015,08,09,10,44,18.80
2015,08,09,10,45,18.80
2015,08,09,10,46,18.80
2015,08,09,10,47,18.80
2015,08,09,10,48,18.80
2015,08,09,10,49,18.90
2015,08,09,10,50,18.80
2015,08,09,10,51,18.80
2015,08,09,10,52,18.90
2015,08,09,10,53,19.10
2015,08,09,10,54,19.20
2015,08,09,10,55,19.20
2015,08,09,10,56,19.30
2015,08,09,10,57,19.40
2015,08,09,10,58,19.60
2015,08,09,10,59,19.80
2015,08,09,11,00,19.90
2015,08,09,11,01,20.10
2015,08,09,11,02,20.30
2015,08,09,11,03,20.50
2015,08,09,11,04,20.40
2015,08,09,11,05,20.40
2015,08,09,11,06,20.10
2015,08,09,11,07,19.90
2015,08,09,11,08,19.70
2015,08,09,11,09,19.60
2015,08,09,11,10,19.50
2015,08,09,11,11,19.40
2015,08,09,11,12,19.40
2015,08,09,11,13,19.30
2015,08,09,11,14,19.20
2015,08,09,11,15,19.30
2015,08,09,11,16,19.30
2015,08,09,11,17,19.30
2015,08,09,11,18,19.50
2015,08,09,11,19,19.70
2015,08,09,11,20,19.70
2015,08,09,11,21,19.80
2015,08,09,11,22,20.00
2015,08,09,11,23,20.10
2015,08,09,11,24,20.20
2015,08,09,11,25,20.10
2015,08,09,11,26,20.10
2015,08,09,11,27,20.00
2015,08,09,11,28,19.90
2015,08,09,11,29,19.80
2015,08,09,11,30,19.80
2015,08,09,11,31,19.80
2015,08,09,11,32,19.90
2015,08,09,11,33,20.00
2015,08,09,11,34,20.10
2015,08,09,11,35,20.10
2015,08,09,11,36,20.10
2015,08,09,11,37,20.00
2015,08,09,11,38,19.90
2015,08,09,11,39,19.90
2015,08,09,11,40,19.90
2015,08,09,11,41,19.90
2015,08,09,11,42,19.90
2015,08,09,11,43,19.90
2015,08,09,11,44,19.90
2015,08,09,11,45,19.90
2015,08,09,11,46,19.90
2015,08,09,11,47,19.90
2015,08,09,11,48,19.90
2015,08,09,11,49,19.90
2015,08,09,11,50,19.90
2015,08,09,11,51,19.90
2015,08,09,11,52,19.90
2015,08,09,11,53,19.90
2015,08,09,11,54,20.00
2015,08,09,11,55,20.10
2015,08,09,11,56,20.10
2015,08,09,11,57,20.10
2015,08,09,11,58,20.20
2015,08,09,11,59,20.20
2015,08,09,12,00,20.30
2015,08,09,12,01,20.40
2015,08,09,12,02,20.40
2015,08,09,12,03,20.30
2015,08,09,12,04,20.40
2015,08,09,12,05,20.40
2015,08,09,12,06,20.50
2015,08,09,12,07,20.50
2015,08,09,12,08,20.50
2015,08,09,12,09,20.50
2015,08,09,12,10,20.60
2015,08,09,12,11,20.60
2015,08,09,12,12,20.50
2015,08,09,12,13,20.50
2015,08,09,12,14,20.50
2015,08,09,12,15,20.50
2015,08,09,12,16,20.50
2015,08,09,12,17,20.50
2015,08,09,12,18,20.40
2015,08,09,12,19,20.30
2015,08,09,12,20,20.30
2015,08,09,12,21,20.40
2015,08,09,12,22,20.60
2015,08,09,12,23,20.60
2015,08,09,12,24,20.70
2015,08,09,12,25,20.60
2015,08,09,12,26,20.60
2015,08,09,12,27,20.60
2015,08,09,12,28,20.80
2015,08,09,12,29,20.90
2015,08,09,12,30,21.00
2015,08,09,12,31,21.10
2015,08,09,12,32,21.10
2015,08,09,12,33,21.00
2015,08,09,12,34,20.80
2015,08,09,12,35,20.80
2015,08,09,12,36,20.80
2015,08,09,12,37,20.90
2015,08,09,12,38,20.90
2015,08,09,12,39,20.90
2015,08,09,12,40,20.80
2015,08,09,12,41,20.70
2015,08,09,12,42,20.70
2015,08,09,12,43,20.60
2015,08,09,12,44,20.60
2015,08,09,12,45,20.50
2015,08,09,12,46,20.60
2015,08,09,12,47,20.60
2015,08,09,12,48,20.70
2015,08,09,12,49,20.80
2015,08,09,12,50,20.90
2015,08,09,12,51,21.00
2015,08,09,12,52,21.10
2015,08,09,12,53,21.20
2015,08,09,12,54,21.10
2015,08,09,12,55,21.10
2015,08,09,12,56,21.00
2015,08,09,12,57,21.00
2015,08,09,12,58,20.90
2015,08,09,12,59,21.00
2015,08,09,13,00,21.10
2015,08,09,13,01,21.20
2015,08,09,13,02,21.30
2015,08,09,13,03,21.40
2015,08,09,13,04,21.50
2015,08,09,13,05,21.60
2015,08,09,13,06,21.60
2015,08,09,13,07,21.50
2015,08,09,13,08,21.40
2015,08,09,13,09,21.30
2015,08,09,13,10,21.30
2015,08,09,13,11,21.20
2015,08,09,13,12,21.20
2015,08,09,13,13,21.20
2015,08,09,13,14,21.20
2015,08,09,13,15,21.20
2015,08,09,13,16,21.20
2015,08,09,13,17,21.20
2015,08,09,13,18,21.20
2015,08,09,13,19,21.20
2015,08,09,13,20,21.20
2015,08,09,13,21,21.10
2015,08,09,13,22,21.10
2015,08,09,13,23,21.10
2015,08,09,13,24,21.20
2015,08,09,13,25,21.20
2015,08,09,13,26,21.40
2015,08,09,13,27,21.50
2015,08,09,13,28,21.50
2015,08,09,13,29,21.40
2015,08,09,13,30,21.50
2015,08,09,13,31,21.60
2015,08,09,13,32,21.70
2015,08,09,13,33,21.70
2015,08,09,13,34,21.70
2015,08,09,13,35,21.80
2015,08,09,13,36,21.90
2015,08,09,13,37,22.10
2015,08,09,13,38,22.20
2015,08,09,13,39,22.20
2015,08,09,13,40,22.20
2015,08,09,13,41,22.10
2015,08,09,13,42,22.00
2015,08,09,13,43,21.90
2015,08,09,13,44,21.70
2015,08,09,13,45,21.50
2015,08,09,13,46,21.40
2015,08,09,13,47,21.50
2015,08,09,13,48,21.50
2015,08,09,13,49,21.60
2015,08,09,13,50,21.70
2015,08,09,13,51,21.70
2015,08,09,13,52,21.70
2015,08,09,13,53,21.70
2015,08,09,13,54,21.60
2015,08,09,13,55,21.60
2015,08,09,13,56,21.50
2015,08,09,13,57,21.40
2015,08,09,13,58,21.40
2015,08,09,13,59,21.40
2015,08,09,14,00,21.50
2015,08,09,14,01,21.50
2015,08,09,14,02,21.50
2015,08,09,14,03,21.40
2015,08,09,14,04,21.40
2015,08,09,14,05,21.40
2015,08,09,14,06,21.50
2015,08,09,14,07,21.50
2015,08,09,14,08,21.50
2015,08,09,14,09,21.40
2015,08,09,14,10,21.50
2015,08,09,14,11,21.50
2015,08,09,14,12,21.60
2015,08,09,14,13,21.60
2015,08,09,14,14,21.60
2015,08,09,14,15,21.60
2015,08,09,14,16,21.60
2015,08,09,14,17,21.60
2015,08,09,14,18,21.60
2015,08,09,14,19,21.70
2015,08,09,14,20,21.80
2015,08,09,14,21,21.80
2015,08,09,14,22,21.80
2015,08,09,14,23,21.80
2015,08,09,14,24,21.80
2015,08,09,14,25,21.80
2015,08,09,14,26,21.70
2015,08,09,14,27,21.70
2015,08,09,14,28,21.70
2015,08,09,14,29,21.70
2015,08,09,14,30,21.80
2015,08,09,14,31,21.80
2015,08,09,14,32,21.80
2015,08,09,14,33,21.80
2015,08,09,14,34,21.70
2015,08,09,14,35,21.70
2015,08,09,14,36,21.70
2015,08,09,14,37,21.70
2015,08,09,14,38,21.70
2015,08,09,14,39,21.80
2015,08,09,14,40,21.90
2015,08,09,14,41,21.90
2015,08,09,14,42,21.90
2015,08,09,14,43,21.90
2015,08,09,14,44,22.00
2015,08,09,14,45,22.00
2015,08,09,14,46,22.10
2015,08,09,14,47,22.20
2015,08,09,14,48,22.20
2015,08,09,14,49,22.10
2015,08,09,14,50,22.10
2015,08,09,14,51,22.10
2015,08,09,14,52,22.20
2015,08,09,14,53,22.20
2015,08,09,14,54,22.30
2015,08,09,14,55,22.40
2015,08,09,14,56,22.40
2015,08,09,14,57,22.50
2015,08,09,14,58,22.50
2015,08,09,14,59,22.50
2015,08,09,15,00,22.50
2015,08,09,15,01,22.50
2015,08,09,15,02,22.60
2015,08,09,15,03,22.60
2015,08,09,15,04,22.50
2015,08,09,15,05,22.40
2015,08,09,15,06,22.40
2015,08,09,15,07,22.50
2015,08,09,15,08,22.60
2015,08,09,15,09,22.60
2015,08,09,15,10,22.50
2015,08,09,15,11,22.50
2015,08,09,15,12,22.40
2015,08,09,15,13,22.30
2015,08,09,15,14,22.30
2015,08,09,15,15,22.30
2015,08,09,15,16,22.30
2015,08,09,15,17,22.30
2015,08,09,15,18,22.10
2015,08,09,15,19,22.00
2015,08,09,15,20,22.00
2015,08,09,15,21,22.00
2015,08,09,15,22,22.10
2015,08,09,15,23,22.10
2015,08,09,15,24,22.10
2015,08,09,15,25,22.20
2015,08,09,15,26,22.30
2015,08,09,15,27,22.30
2015,08,09,15,28,22.30
2015,08,09,15,29,22.30
2015,08,09,15,30,22.30
2015,08,09,15,31,22.30
2015,08,09,15,32,22.20
2015,08,09,15,33,22.20
2015,08,09,15,34,22.20
2015,08,09,15,35,22.20
2015,08,09,15,36,22.20
2015,08,09,15,37,22.20
2015,08,09,15,38,22.20
2015,08,09,15,39,22.20
2015,08,09,15,40,22.30
2015,08,09,15,41,22.30
2015,08,09,15,42,22.30
2015,08,09,15,43,22.30
2015,08,09,15,44,22.40
2015,08,09,15,45,22.40
2015,08,09,15,46,22.30
2015,08,09,15,47,22.20
2015,08,09,15,48,22.20
2015,08,09,15,49,22.20
2015,08,09,15,50,22.20
2015,08,09,15,51,22.20
2015,08,09,15,52,22.10
2015,08,09,15,53,22.20
2015,08,09,15,54,22.30
2015,08,09,15,55,22.30
2015,08,09,15,56,22.30
2015,08,09,15,57,22.40
2015,08,09,15,58,22.40
2015,08,09,15,59,22.50
2015,08,09,16,00,22.60
2015,08,09,16,01,22.50
2015,08,09,16,02,22.40
2015,08,09,16,03,22.40
2015,08,09,16,04,22.40
2015,08,09,16,05,22.30
2015,08,09,16,06,22.30
2015,08,09,16,07,22.20
2015,08,09,16,08,22.10
2015,08,09,16,09,22.10
2015,08,09,16,10,22.20
2015,08,09,16,11,22.20
2015,08,09,16,12,22.30
2015,08,09,16,13,22.40
2015,08,09,16,14,22.40
2015,08,09,16,15,22.50
2015,08,09,16,16,22.50
2015,08,09,16,17,22.40
2015,08,09,16,18,22.40
2015,08,09,16,19,22.40
2015,08,09,16,20,22.30
2015,08,09,16,21,22.20
2015,08,09,16,22,22.10
2015,08,09,16,23,22.20
2015,08,09,16,24,22.20
2015,08,09,16,25,22.20
2015,08,09,16,26,22.20
2015,08,09,16,27,22.20
2015,08,09,16,28,22.30
2015,08,09,16,29,22.30
2015,08,09,16,30,22.30
2015,08,09,16,31,22.30
2015,08,09,16,32,22.40
2015,08,09,16,33,22.30
2015,08,09,16,34,22.30
2015,08,09,16,35,22.30
2015,08,09,16,36,22.40
2015,08,09,16,37,22.40
2015,08,09,16,38,22.40
2015,08,09,16,39,22.40
2015,08,09,16,40,22.50
2015,08,09,16,41,22.50
2015,08,09,16,42,22.50
2015,08,09,16,43,22.50
2015,08,09,16,44,22.40
2015,08,09,16,45,22.40
2015,08,09,16,46,22.40
2015,08,09,16,47,22.30
2015,08,09,16,48,22.40
2015,08,09,16,49,22.40
2015,08,09,16,50,22.50
2015,08,09,16,51,22.60
2015,08,09,16,52,22.60
2015,08,09,16,53,22.50
2015,08,09,16,54,22.50
2015,08,09,16,55,22.50
2015,08,09,16,56,22.50
2015,08,09,16,57,22.50
2015,08,09,16,58,22.40
2015,08,09,16,59,22.50
2015,08,09,17,00,22.60
2015,08,09,17,01,22.50
2015,08,09,17,02,22.50
2015,08,09,17,03,22.50
2015,08,09,17,04,22.50
2015,08,09,17,05,22.60
2015,08,09,17,06,22.60
2015,08,09,17,07,22.60
2015,08,09,17,08,22.60
2015,08,09,17,09,22.60
2015,08,09,17,10,22.70
2015,08,09,17,11,22.60
2015,08,09,17,12,22.60
2015,08,09,17,13,22.70
2015,08,09,17,14,22.70
2015,08,09,17,15,22.70
2015,08,09,17,16,22.60
2015,08,09,17,17,22.60
2015,08,09,17,18,22.60
2015,08,09,17,19,22.60